Weather History for Lakehurst NAS, NJ

Change the Weather History Date:

Thursday, February 27, 2014

  Actual Average Record
Temperature  
Mean Temperature 20 °F -  
Max Temperature 15 °F 43 °F 73 °F (1997)
Min Temperature 6 °F 31 °F 6 °F (2014)
Degree Days  
Heating Degree Days 45    
Moisture  
Dew Point 8 °F    
Average Humidity 59    
Maximum Humidity 84    
Minimum Humidity 28    
Precipitation  
Precipitation 0.00 in - - ()
Sea Level Pressure  
Sea Level Pressure 29.75 in    
Wind  
Wind Speed 7 mph (West)    
Max Wind Speed 24 mph    
Max Gust Speed 34 mph    
Averages and records for this station are not official NWS values.
T = Trace of Precipitation, MM = Missing Value Source: NWS Daily Summary

Daily Weather History Graph

Daily Weather History Graph

Search for Another Location

Airport:

Trip Planner

Search our weather history database for the weather conditions in past years. The results will help you decide how hot, cold, wet, or windy it might be!

Date:

Astronomy

Feb. 27, 2014 Rise Set
Actual Time 6:33 AM EST 5:47 PM EST
Civil Twilight 6:06 AM EST 6:14 PM EST
Nautical Twilight 5:35 AM EST 6:45 PM EST
Astronomical Twilight 5:03 AM EST 7:17 PM EST
Moon 5:04 AM EST (2/27) 4:09 PM EST (2/27)
Length of Visible Light 12h 07m
Length of Day
11h 13m
Waning Crescent, 4% of the Moon is Illuminated
Feb 27
Waning Crescent
Mar 1
New
Mar 8
First Quarter
Mar 16
Full
Mar 23
Last Quarter

Hourly Weather History & Observations

Time (EST) Temp. Windchill Dew Point Humidity Pressure Visibility Wind Dir Wind Speed Gust Speed Precip Events Conditions
12:00 AM 10.9 °F - 3.9 °F 73% 29.88 in - Calm Calm - N/A   Clear
1:00 AM 10.0 °F - 5.0 °F 80% 29.88 in - Calm Calm - N/A   Clear
3:00 AM 8.1 °F - 3.0 °F 80% 29.83 in - Calm Calm - N/A   Clear
4:00 AM 7.0 °F - 3.0 °F 84% 29.80 in - Calm Calm - N/A   Clear
5:00 AM 8.1 °F - 1.9 °F 76% 29.78 in - Calm Calm - N/A   Clear
6:00 AM 6.1 °F - 1.9 °F 83% 29.77 in - Calm Calm - N/A   Clear
8:00 AM 16.0 °F - 8.1 °F 71% 29.75 in - Calm Calm - N/A   Overcast
9:00 AM 26.1 °F 15.6 °F 8.1 °F 47% 29.73 in - South 11.5 mph - N/A   Overcast
11:00 AM 30.9 °F 19.4 °F 12.9 °F 47% 29.68 in - SW 17.3 mph - 0.00 in Snow Light Snow
12:00 PM 33.1 °F 22.6 °F 18.0 °F 54% 29.65 in - WSW 16.1 mph 24.2 mph N/A   Overcast
12:45 PM 30.2 °F 20.2 °F 21.2 °F 69% 29.64 in - West 12.7 mph - 0.00 in Snow Light Snow
1:00 PM 28.9 °F 18.6 °F 24.1 °F 82% 29.64 in - WNW 12.7 mph - 0.00 in Snow Snow
1:26 PM 33.8 °F 24.3 °F 21.2 °F 60% 29.62 in - West 13.8 mph 21.9 mph 0.00 in   Mostly Cloudy
3:00 PM 34.0 °F 21.5 °F 3.9 °F 28% 29.66 in - WNW 24.2 mph 33.4 mph N/A   Mostly Cloudy
4:00 PM 30.9 °F 18.1 °F 3.0 °F 31% 29.71 in - WNW 21.9 mph 31.1 mph N/A   Scattered Clouds
5:00 PM 30.0 °F 16.3 °F 1.0 °F 29% 29.74 in - West 24.2 mph 33.4 mph N/A   Clear
6:00 PM 28.0 °F 17.5 °F 3.0 °F 34% 29.79 in - West 12.7 mph 21.9 mph N/A   Clear
7:00 PM 28.0 °F 14.3 °F 6.1 °F 39% 29.85 in - WNW 21.9 mph 34.5 mph N/A   Mostly Cloudy
8:00 PM 25.0 °F 10.2 °F 6.1 °F 45% 29.91 in - WNW 21.9 mph 33.4 mph N/A   Mostly Cloudy